Weather in Zwolle

Netherlands     52°30′32″N   6°05′38″E
temp.,
°C
wind,
m/s
gust,
m/s
humid.,
%
clouds,
%
prec.,
mm/h
press.,
hPa
HPBL,
m
18 may, wed
wed1823:00+16ese388898 0.0 1019157
02:00+15se410907 0.0 1018186
05:00+14s349098 0.0 101855
08:00+18ssw387842 0.0 1020280
11:00+22w446794 0.0 1021824
14:00+22wnw446899 0.2 1021758
17:00+22nw436594 0.0 1021766
20:00+19nnw357299 0.0 1021217
19 may, thu
thu1923:00+14ne3389100 0.0 102155
02:00+14e3594100 0.0 101980
05:00+15ese3496100 0.1 101884
08:00+18sse3792100 1.6 1017237
11:00+18s2290100 0.8 1018231
14:00+24sw4664100 0.8 10181167
17:00+24wsw577045 0.8 10181100
20:00+19wnw488977 1.9 1018432
20 may, fri
fri2023:00+13wnw369999 0.0 1021191
02:00+14w3496100 0.0 1021304
05:00+13w3491100 0.0 1022315
08:00+14sw1286100 0.0 1022355
11:00+18sw2265100 0.0 1021682
14:00+21se2351100 0.0 10191121
17:00+22ese566045 0.0 1014615
20:00+17ssw4898100 12.6 1010519
21 may, sat
sat2123:00+13wnw8139680 10.4 1011485
02:00+12w8149194 10.6 1015950
05:00+11w7129153 0.1 1017782
08:00+13w7118960 0.4 1018868
11:00+14w8117698 0.3 10201070
14:00+17wnw710618 0.4 10211326
17:00+16wnw796074 0.0 10221165
20:00+14wnw47715 0.0 1022742
22 may, sun
sun2223:00+9wnw22905 0.0 102317
02:00+9sw12935 0.0 102211
05:00+9ssw22937 0.0 102126
08:00+12s347830 0.0 1020198
11:00+17ssw2257100 0.0 1019766
14:00+20se225199 0.0 10181390
17:00+20ese3252100 0.0 10161448
20:00+18e3570100 0.0 1015129